Starlink 11388

operational
NORAD ID: 62092 Int'l Des: 2024-220 Owner: SPXS Country: US Constellation: starlink
LEOCIRCULAR

About Starlink 11388

Description loading...

Live Position

Loading 3D Globe...

Upcoming Passes

Altitude History

Altitude vs Time

uPlot chart will show altitude changes over time

Two-Line Element Set

1 62092U 24220E 25257.82726850 .00193189 00000-0 14708-2 0 9991
2 62092 43.0012 23.1991 0002518 278.8822 81.1760 15.70896806 47294
Epoch: Sep 14, 2025 • Age: 24 hours

Current Status

Altitude 364.4 km
Velocity 7.69 km/s
Sub-Earth Point -37.05°S, 28.42°E
Launch Date Nov 25, 2024
Age 0.8 years
Type internet

Technical Details

Classification Payload
Mass 960.00 kg
Dry Mass 910.00 kg
Total Mass 960.00 kg
Length 0.30 m
Diameter 4.10 m
Span 29.00 m
Shape Box + pan
Manufacturer SPXS
Bus Type Starlink V2MD
Phase Status In Orbit
Owner/State SPXS/US

Large Constellations

Loading constellations...